Torna al catalogo

SL-12 DEB

LostHEO
NORAD 44558·DEBRIS·🇷🇺 Russia

Lanciato Sep 2, 2010 da Baikonur Cosmodrome

Loading…

Prossimi Passaggi (prossime 24 ore)

TLE

ObsoletoSource: Space-Track

Epoca: Oct 10, 2019, 01:56 UTC

1 44558U 10041AD  19283.08084262  .00026072  00000-0  40063-1 0  9996
2 44558  65.5510 274.0780 5755281  34.3529 352.1202  4.25285003  1529

Traccia SL-12 DEB in tempo reale con AllMySat

Download on the App Store